Theta_e
302 301 301 301 303 303 305 313 316 314 313 308 304 305 297 295 292 303 307 309 305 297 289 291 290 286 288 290 291 294 291 290 292 291 293 291 291 291 292 291 290 290 290 289 289 289 285 287 286 284 284 286 287 290 294 295 294 294 286 289 288 290 282 280 280 283 283 282 283 285 284 286 286 285 284 284 285 283 280 277 278 281 277 277 276 274 276
302 301 300 300 302 302 304 314 315 313 311 307 305 300 296 296 295 298 306 309 304 293 285 284 287 289 289 290 291 292 290 291 290 291 292 292 291 291 290 291 293 290 292 291 289 291 284 287 287 285 285 286 291 291 294 296 293 293 290 291 291 284 281 284 275 274 278 280 282 283 284 285 282 282 282 284 284 281 279 278 277 279 278 279 277 277 277
301 300 299 299 300 301 303 314 314 312 312 310 305 297 298 297 299 299 301 305 301 290 292 289 288 288 288 289 289 289 289 292 293 293 291 293 292 291 290 292 292 291 293 291 292 292 289 285 289 287 286 289 290 292 294 297 294 295 294 296 294 282 282 283 277 275 273 272 274 278 282 282 281 282 283 285 286 281 282 280 279 276 277 278 276 281 282
301 300 299 299 300 301 302 305 311 312 311 310 305 301 297 293 285 293 295 299 298 296 294 292 291 288 288 288 289 290 288 291 293 295 292 291 292 291 291 290 293 290 291 289 288 289 289 289 286 288 287 287 288 290 293 295 295 295 296 294 293 281 284 286 284 283 280 283 283 283 286 284 283 286 285 286 287 286 285 281 278 281 280 279 284 284 282
301 301 299 299 299 300 301 304 308 310 310 310 305 298 297 296 289 289 286 294 294 293 294 290 291 288 291 286 288 288 289 290 290 292 291 292 293 290 293 291 290 288 290 288 288 289 288 286 288 288 289 286 288 288 291 292 294 295 294 294 290 283 283 286 285 285 285 283 282 285 289 286 287 286 285 285 286 285 284 282 283 283 280 279 284 283 281
301 301 300 299 299 300 301 303 304 306 306 307 303 295 292 289 291 295 295 289 286 287 289 292 290 291 291 287 289 289 288 289 287 288 291 293 294 291 290 292 292 291 290 289 286 286 286 286 286 286 285 286 287 289 289 291 292 293 292 294 292 287 285 285 284 283 283 282 285 287 288 287 286 286 285 284 284 283 284 284 286 283 284 283 283 284 283
301 301 301 300 299 300 301 302 303 304 303 303 300 293 289 291 291 292 295 288 290 291 292 292 290 289 290 286 289 288 288 287 290 288 289 292 291 293 286 289 291 291 292 290 286 287 283 283 284 286 285 287 284 283 286 288 287 290 290 288 283 289 280 282 285 283 284 283 283 285 286 284 284 285 285 287 284 285 286 287 287 285 285 287 282 282 283
300 301 301 300 299 300 301 302 302 303 303 301 294 289 289 288 291 287 291 290 292 291 292 290 289 287 290 286 288 290 289 288 288 289 291 287 289 291 290 289 291 291 291 291 287 288 290 289 285 285 288 284 284 287 285 285 285 287 288 288 287 288 281 286 282 279 282 282 283 284 284 284 283 283 285 286 287 287 287 287 287 285 285 286 283 283 286
300 300 301 300 300 300 300 301 301 301 302 294 291 288 290 288 289 291 291 288 290 292 291 289 288 286 286 286 287 289 289 289 291 288 291 292 289 290 289 290 290 291 291 290 290 292 292 291 292 291 292 288 288 289 283 288 287 287 287 286 286 286 278 281 281 280 277 280 281 281 281 282 282 283 283 284 285 284 286 285 285 284 285 286 285 284 285
300 300 301 301 300 300 300 301 301 300 299 292 289 285 291 290 291 292 292 285 292 290 291 289 288 284 288 288 288 289 289 291 292 289 290 290 292 293 292 291 291 288 290 289 291 293 292 294 294 295 296 295 291 291 292 293 290 287 288 286 286 284 282 280 279 280 276 279 282 280 280 280 277 280 284 286 286 287 287 287 286 288 289 285 283 285 287
300 300 300 301 300 299 299 300 300 300 296 289 287 286 289 289 289 291 290 287 288 291 289 288 287 288 289 289 286 287 289 290 292 289 284 291 291 294 294 292 291 288 289 291 294 295 294 294 293 293 294 294 292 292 293 294 294 294 289 286 284 286 286 282 284 280 275 275 280 281 281 275 279 290 289 288 286 286 284 285 287 288 288 288 290 290 286
299 300 300 300 301 300 299 300 300 300 298 294 293 289 291 291 289 288 289 286 287 290 289 287 287 286 289 289 290 289 289 290 288 290 288 288 290 293 294 294 293 287 293 296 297 297 297 297 296 294 292 291 291 292 293 292 290 290 292 290 284 286 285 281 278 278 273 273 279 280 276 278 287 283 290 290 290 289 288 289 289 289 289 289 289 289 286
299 299 300 300 301 301 300 299 300 300 299 296 294 289 292 293 290 289 288 287 285 287 287 286 284 286 288 289 289 289 290 290 291 292 292 291 288 292 292 292 293 292 297 297 297 296 291 287 287 288 287 288 289 290 289 288 288 288 286 287 288 283 284 277 274 273 273 273 277 272 276 281 282 281 283 287 290 289 288 286 287 287 288 289 289 291 292
299 299 299 300 300 300 300 300 299 299 299 298 293 292 293 292 287 286 286 288 285 285 285 285 286 286 288 289 288 288 290 290 290 293 291 292 291 291 292 294 295 298 298 298 295 292 287 285 285 285 283 281 283 285 285 287 285 285 287 284 285 288 284 282 276 273 275 274 278 277 278 280 283 283 282 285 284 283 285 282 286 289 289 289 290 291 291
298 298 299 299 299 300 300 300 300 299 299 299 295 294 293 294 291 287 285 288 286 284 287 287 285 286 288 287 289 288 289 288 290 287 288 289 290 290 293 294 298 299 299 296 286 286 284 284 281 280 280 281 278 281 280 279 283 284 281 280 283 286 286 281 282 274 273 274 271 271 273 275 281 283 283 289 288 290 290 287 286 290 291 291 291 290 291
297 298 298 299 299 299 300 300 300 300 299 299 295 293 294 295 295 291 288 287 289 284 284 285 285 287 287 286 290 289 287 288 287 286 287 286 288 292 293 292 294 294 293 289 287 287 285 284 280 281 278 280 279 280 276 278 280 283 283 283 285 282 282 283 284 276 273 272 274 273 273 278 281 283 286 289 290 290 287 282 283 287 289 290 291 290 290
297 297 298 298 299 299 299 299 300 300 299 299 293 293 292 296 294 292 288 286 287 283 284 286 286 287 288 286 287 287 288 287 289 287 285 286 288 289 291 292 292 294 293 291 284 285 284 282 283 280 277 278 279 278 276 274 275 277 282 282 281 281 276 279 277 272 276 276 272 275 272 278 281 284 283 287 289 291 288 273 279 284 289 289 290 290 291
296 297 297 298 298 298 299 299 299 300 299 299 295 292 293 296 296 294 288 287 284 282 286 287 286 286 288 286 288 286 287 286 286 288 287 284 286 287 289 291 290 291 292 290 286 285 284 282 282 280 280 280 281 283 279 279 277 278 280 281 276 276 276 277 280 278 276 281 271 269 276 281 279 282 283 286 292 290 280 277 282 285 288 289 291 291 292
296 296 297 297 298 298 298 298 299 299 299 299 296 294 293 296 296 295 289 286 286 284 286 289 289 286 287 287 285 285 287 290 290 287 286 287 286 287 291 289 292 289 285 286 286 285 284 280 281 279 278 277 280 281 279 279 278 275 281 278 274 274 272 271 273 274 277 277 275 275 276 281 285 282 286 289 288 276 279 286 282 285 283 284 288 289 286
296 296 296 297 297 298 298 298 299 299 299 299 296 291 293 295 296 295 290 284 285 284 285 286 288 286 288 287 286 286 286 287 288 289 288 287 287 290 291 287 287 287 286 286 285 284 283 281 283 279 278 280 280 280 277 277 279 282 279 285 283 281 279 277 279 273 270 268 275 272 274 280 286 287 285 286 285 285 285 282 284 281 283 285 284 288 287
295 296 296 297 297 297 298 298 298 299 299 299 298 291 291 295 295 296 295 291 287 285 284 289 289 288 288 287 288 288 288 289 286 290 287 289 291 293 285 286 289 287 286 287 284 284 285 284 282 279 280 284 281 279 280 279 276 280 283 285 281 284 279 274 279 280 277 277 275 278 283 286 288 289 287 288 289 284 285 288 289 284 281 285 286 285 286
295 295 296 296 297 297 297 298 298 298 299 299 297 292 289 292 294 296 295 293 287 284 285 289 291 290 290 291 291 290 290 290 290 290 290 290 285 288 287 289 288 286 286 283 285 282 281 283 281 280 279 279 279 283 280 278 275 278 279 281 278 285 285 285 282 279 278 280 283 285 283 288 289 288 288 293 289 284 288 290 291 288 285 282 285 288 285
294 295 295 296 296 297 297 297 298 298 299 299 296 291 289 291 292 295 294 289 290 290 291 290 291 292 293 292 293 293 290 291 291 290 290 293 287 285 286 290 288 286 285 286 289 288 286 286 283 282 281 281 283 279 276 279 278 277 282 284 281 283 285 280 286 283 285 285 284 282 281 283 285 282 282 286 289 282 283 286 289 286 287 285 288 286 286
294 294 295 295 295 296 296 297 297 298 298 298 297 290 290 291 292 292 290 289 285 284 286 288 286 284 286 286 291 293 293 292 293 292 292 292 289 285 284 285 288 284 284 285 284 286 285 284 285 284 285 283 284 281 281 278 279 280 282 280 281 282 280 283 281 279 284 281 287 284 285 284 287 287 285 283 283 283 282 284 287 287 284 285 282 285 286
294 294 294 294 295 295 296 296 297 297 298 297 295 293 292 291 292 291 287 283 282 281 279 282 284 289 290 292 293 291 292 293 295 294 295 295 292 288 287 288 288 287 287 286 285 286 285 285 283 281 284 283 287 283 285 284 279 280 283 282 280 283 282 286 280 281 284 286 284 283 283 283 283 284 286 287 287 284 282 281 281 281 282 283 282 282 282
293 293 294 294 294 294 295 295 297 297 297 297 295 289 289 289 292 292 290 288 285 284 279 278 283 289 291 290 288 291 293 293 294 295 294 292 294 294 291 288 289 289 287 285 285 286 285 284 282 280 284 284 286 282 280 283 280 281 286 285 285 283 287 283 283 285 284 282 280 280 284 287 286 285 284 286 289 287 282 281 282 282 285 282 281 281 282
293 293 293 293 294 294 294 295 296 296 297 296 292 290 289 289 292 291 287 286 281 279 280 278 282 285 286 286 290 291 291 293 294 294 294 294 294 294 293 291 289 288 288 286 285 285 284 284 284 282 284 284 283 280 278 280 281 282 279 281 283 285 285 283 283 282 284 285 285 285 284 281 287 287 288 286 282 284 283 281 283 283 284 283 285 282 281
293 293 293 293 293 293 293 294 295 296 296 295 291 289 290 289 290 292 292 288 283 278 279 280 280 283 286 285 289 290 291 292 294 293 293 293 294 294 293 291 290 287 284 286 285 285 284 286 283 283 283 284 285 282 278 279 278 276 276 283 285 288 286 284 285 285 285 288 285 289 287 284 287 291 289 284 283 285 285 286 286 284 282 283 285 284 283
292 292 292 292 293 293 293 294 295 295 295 291 285 286 285 288 290 292 293 291 286 282 282 283 284 281 277 283 288 288 289 291 292 292 292 291 292 292 292 292 290 288 286 286 286 285 284 284 285 284 284 286 285 281 282 280 278 283 285 283 284 282 283 289 289 289 285 283 288 287 285 286 286 285 287 285 284 286 288 286 284 285 284 283 284 286 287
292 292 292 292 292 292 293 293 294 295 293 282 282 279 277 282 287 290 294 292 287 285 281 277 276 279 283 284 284 285 286 289 290 290 289 289 290 290 290 290 288 288 286 286 286 284 285 285 284 284 285 287 285 285 282 280 281 283 282 283 286 283 281 283 284 287 286 283 283 282 281 281 281 281 283 284 283 285 286 285 283 283 282 282 284 282 281
292 292 292 292 292 292 293 293 294 294 289 278 278 274 270 271 280 291 294 289 285 284 280 281 279 282 278 283 284 284 285 286 287 287 287 287 287 288 288 288 286 288 285 285 285 285 286 281 284 285 286 287 287 284 281 281 279 276 281 283 285 286 285 284 281 282 283 282 281 280 281 281 282 283 283 281 281 282 281 281 281 282 281 280 281 280 280
292 292 292 292 292 292 293 293 294 292 284 283 279 277 277 281 288 292 293 291 286 283 277 276 275 273 274 280 279 283 285 285 283 283 284 286 285 287 286 288 286 289 288 283 285 283 281 284 284 284 284 288 288 282 281 278 280 278 280 283 284 284 283 282 282 282 283 285 287 287 284 284 282 284 286 282 280 280 280 280 279 279 280 278 276 276 276
291 292 292 292 292 292 293 293 293 292 283 290 294 295 295 295 293 291 290 288 285 280 280 275 273 276 274 274 281 282 284 284 283 282 281 285 283 284 283 285 284 285 290 286 280 281 284 282 284 284 285 287 284 283 279 279 281 282 283 284 282 282 282 282 283 285 286 282 282 286 284 285 284 282 281 281 279 279 280 278 275 276 277 277 277 278 277
291 291 292 292 292 293 293 293 293 293 289 279 275 280 285 294 293 293 289 283 280 280 278 276 273 271 270 278 277 281 285 280 279 280 278 284 282 282 280 281 281 282 282 283 283 282 281 282 281 283 286 283 285 281 278 281 283 283 281 280 282 283 283 284 285 286 283 281 283 285 286 284 282 281 281 280 278 276 276 276 277 278 274 275 275 276 274
291 291 292 292 292 293 293 291 281 280 273 273 272 279 285 293 291 290 288 282 275 276 276 274 276 271 272 272 274 278 282 281 278 281 280 281 283 279 280 279 280 279 281 285 278 277 280 280 285 282 279 284 282 278 281 282 282 282 281 282 283 284 284 285 284 282 279 280 282 282 283 284 284 282 281 278 278 278 279 277 278 279 278 278 276 275 273
291 291 293 294 292 291 286 286 279 276 273 273 273 288 293 292 291 286 286 285 282 277 275 274 275 271 273 270 271 275 284 279 281 278 278 280 279 280 276 277 276 278 280 278 277 277 277 283 283 277 283 279 278 283 282 282 283 282 284 283 284 286 287 287 284 279 278 279 280 281 282 282 285 284 281 280 280 280 280 280 279 279 278 277 277 276 274
294 294 292 289 281 281 276 275 283 275 273 278 287 292 291 289 281 285 284 282 282 283 276 275 273 272 271 272 274 278 282 275 280 278 280 278 278 280 278 277 274 280 276 276 276 275 280 283 278 277 279 278 282 282 282 284 284 283 282 282 284 282 283 283 282 281 280 280 279 278 278 280 280 280 281 280 279 279 279 280 280 281 282 282 279 277 277
290 287 277 277 276 271 270 274 275 279 291 291 290 282 278 279 273 277 276 273 276 282 275 276 271 274 270 271 272 280 281 273 277 276 279 282 279 274 279 277 276 280 270 275 276 282 276 275 277 277 278 282 281 280 280 282 284 284 283 283 283 281 283 282 283 284 282 281 280 279 278 279 280 278 279 279 277 279 281 282 281 281 282 282 282 281 277
286 276 274 270 270 269 272 273 283 291 285 282 278 272 270 272 268 265 265 271 276 272 275 275 272 275 273 272 270 280 278 276 276 277 275 282 277 273 279 273 278 277 272 276 277 284 274 274 274 274 275 276 278 279 277 277 279 281 282 283 282 281 282 283 285 285 285 285 285 283 284 284 282 281 278 278 278 277 276 275 275 276 277 278 278 277 278
274 272 271 265 268 273 281 285 291 285 281 272 268 265 263 268 267 261 269 266 266 270 274 268 276 276 276 273 274 274 283 278 273 275 277 277 283 274 277 272 275 274 270 273 274 281 275 273 274 273 275 279 279 277 277 277 278 278 277 278 278 279 281 283 283 283 285 285 284 284 283 282 283 282 280 278 278 277 275 272 273 272 271 274 274 274 275
272 267 267 270 271 270 276 274 274 274 271 268 265 265 267 267 262 264 268 263 265 263 269 271 269 268 274 276 275 272 279 279 274 276 275 273 279 277 272 271 279 268 267 272 276 272 274 273 272 273 275 278 276 276 276 276 278 278 276 276 277 278 279 279 281 279 279 280 279 278 278 278 278 278 278 277 277 277 276 275 273 273 272 271 272 272 272
275 271 271 273 276 276 275 275 270 269 267 270 264 259 261 261 265 262 263 263 264 266 264 266 266 269 269 276 275 279 277 274 274 276 275 273 279 272 271 268 268 267 267 273 272 269 274 270 272 273 277 273 275 275 276 277 276 278 277 275 275 276 277 278 278 275 275 276 275 274 274 275 275 275 275 276 276 275 276 275 274 273 271 271 270 270 269
288 284 280 270 268 269 270 265 265 268 265 266 263 258 259 255 256 262 262 263 259 259 261 265 265 277 273 272 272 271 274 282 278 272 268 268 278 271 266 264 267 264 270 271 270 273 271 269 271 275 272 272 274 275 277 279 278 274 270 268 268 270 274 274 274 271 270 270 271 271 271 272 271 271 271 272 272 271 271 271 271 270 270 270 270 269 268
280 276 270 264 267 266 266 261 268 265 260 262 261 257 260 258 257 255 255 258 256 262 264 271 269 272 268 270 274 275 273 275 277 268 263 266 270 268 271 264 265 270 269 263 268 271 272 273 274 271 267 265 266 269 271 271 272 271 269 266 265 267 268 269 270 269 268 267 267 267 268 267 267 268 267 266 267 267 268 267 266 265 264 265 266 266 266
272 268 264 262 260 264 265 260 265 260 258 260 267 259 259 256 260 259 264 265 264 264 267 269 270 269 270 268 266 266 276 269 273 269 265 269 265 267 266 266 267 260 260 263 267 268 268 267 271 266 266 269 268 266 266 267 271 276 270 265 264 263 265 266 264 264 263 263 262 263 264 263 263 262 262 262 262 261 262 262 261 262 263 264 265 265 266
268 266 262 262 262 260 258 257 259 255 258 263 262 261 260 263 262 261 265 261 262 262 267 270 269 269 269 266 271 270 268 263 267 267 269 266 265 264 266 266 266 263 262 263 262 266 269 271 271 269 268 270 267 262 260 260 260 264 272 268 260 259 259 260 259 258 258 258 259 259 259 259 258 259 259 259 259 259 258 257 258 258 260 262 264 263 263
269 266 261 259 258 258 256 254 257 258 257 256 253 255 259 258 259 260 259 257 264 264 266 264 268 270 271 266 266 262 261 261 262 264 267 259 261 263 269 265 262 265 266 262 260 260 260 265 267 264 266 264 260 257 258 258 258 261 260 259 257 257 257 257 256 255 254 254 255 255 256 255 254 254 255 257 258 257 256 256 255 256 257 259 260 259 260
265 266 260 257 257 258 261 258 252 253 254 257 256 252 253 256 259 261 258 255 259 263 267 267 267 266 266 263 263 263 264 260 265 263 263 263 266 258 258 263 261 263 263 266 265 263 264 268 269 265 264 260 260 259 257 258 257 256 256 255 255 254 254 255 255 254 253 253 253 253 253 253 253 254 254 254 255 255 255 254 254 254 255 256 256 257 257
267 263 263 257 256 256 256 257 256 261 256 250 253 254 256 259 261 258 257 255 258 264 266 264 261 266 260 263 263 266 264 261 261 262 265 257 259 260 264 259 262 261 260 263 269 263 270 270 260 260 257 257 255 256 254 253 253 253 253 253 251 252 253 252 253 252 251 251 251 252 252 252 252 252 253 254 254 255 254 252 251 252 252 253 254 255 256
263 263 257 254 259 258 257 255 259 258 252 254 255 257 253 255 254 254 257 256 255 257 264 271 271 266 260 262 258 261 260 260 260 261 259 258 259 259 262 256 258 263 264 260 262 266 261 256 257 256 254 254 252 252 252 252 253 252 251 251 251 252 251 250 251 250 250 250 250 250 249 250 251 251 251 252 252 252 251 251 250 249 250 250 250 253 254
262 258 254 253 257 258 259 259 258 254 255 257 254 253 253 253 254 256 256 255 257 261 266 264 264 260 262 261 261 259 260 265 262 256 260 260 260 257 258 262 265 265 268 262 254 250 249 250 252 255 252 250 250 248 248 249 250 250 250 250 251 251 251 250 251 251 249 249 249 251 250 249 249 249 249 248 248 250 250 251 251 248 248 249 249 248 250
262 258 257 254 252 250 251 256 255 254 254 252 251 252 255 251 252 254 257 257 258 265 265 259 261 261 261 258 261 261 262 259 256 261 262 256 259 260 256 262 264 259 254 254 251 248 247 247 247 248 248 250 248 246 248 246 246 246 247 247 248 249 249 250 249 250 248 248 248 247 248 248 248 247 248 250 250 251 252 251 253 249 248 248 248 247 248
Wind_Speed
23 22 25 27 30 32 41 21 32 35 29 16 9 14 13 11 11 10 21 23 25 19 16 16 11 6 6 1 1 5 6 11 14 17 11 11 2 5 8 12 11 8 10 9 10 12 6 13 14 4 4 5 3 7 14 15 15 10 1 6 5 8 5 6 2 1 3 4 2 0 0 0 2 4 0 3 9 6 6 1 5 8 2 1 1 3 7
23 23 24 26 29 27 35 30 37 36 31 14 12 12 10 11 15 11 10 22 21 20 16 14 12 11 4 2 4 3 4 11 13 15 17 10 10 10 8 10 13 14 9 14 18 17 7 6 6 2 3 5 2 10 15 22 12 15 11 15 10 5 2 9 5 3 2 6 4 3 1 1 4 2 3 2 3 4 2 4 1 2 7 6 6 16 2
23 24 23 27 27 22 31 48 46 45 31 22 15 12 9 11 8 11 11 10 11 14 6 18 20 17 16 12 12 6 5 11 16 18 17 5 11 10 9 12 13 8 13 14 12 18 10 6 5 3 5 4 0 8 15 22 15 9 6 8 8 3 5 9 8 11 13 11 12 17 17 11 1 0 1 3 6 5 4 2 2 4 5 8 5 13 1
24 23 25 27 25 25 27 22 25 34 33 25 12 13 14 12 12 4 7 8 10 2 5 2 10 13 15 13 8 11 9 6 8 18 6 1 7 5 6 4 13 7 13 13 11 15 4 11 6 8 6 4 1 5 14 18 11 10 14 13 11 3 4 6 9 14 17 18 8 4 13 5 9 13 14 12 9 8 4 4 4 14 7 9 18 8 4
23 22 25 25 28 26 28 24 13 16 11 17 12 4 7 6 13 15 11 5 7 7 2 5 13 15 13 12 7 14 14 9 5 5 7 5 10 3 10 8 13 9 17 12 12 13 6 1 10 12 14 2 3 4 9 8 10 17 12 17 8 5 4 11 9 11 5 3 2 6 13 15 18 12 10 8 9 8 9 10 18 6 10 14 9 9 4
23 24 23 26 25 27 29 27 21 14 11 5 2 11 2 9 5 11 10 17 18 10 9 11 16 11 11 3 1 14 18 15 12 0 1 8 12 13 1 15 16 21 22 18 14 11 8 8 12 5 2 5 1 8 1 7 5 12 6 11 9 8 10 5 5 4 3 1 9 13 12 11 8 9 7 7 9 8 15 19 13 9 14 18 5 9 8
23 23 23 24 26 27 27 28 24 20 15 8 3 12 4 2 4 1 2 7 8 20 25 22 19 17 14 2 8 12 17 17 13 7 6 9 9 13 12 17 21 24 19 16 11 16 10 8 7 11 8 12 8 5 3 1 2 6 8 6 1 7 4 5 7 4 2 1 6 8 13 6 7 12 14 14 11 16 20 22 14 12 13 7 5 4 7
21 23 22 22 25 25 26 29 26 20 13 4 8 6 4 5 13 6 4 3 14 15 14 7 11 13 11 6 9 14 19 19 7 2 11 10 11 6 18 18 20 21 21 20 18 21 21 21 15 4 13 8 5 9 6 6 2 1 7 6 1 6 4 7 5 4 4 1 3 1 6 9 8 7 11 15 19 21 23 19 12 7 11 12 4 7 14
21 23 22 21 22 24 26 29 26 22 8 6 6 3 4 2 3 1 12 11 7 12 12 14 16 13 8 8 7 9 15 15 11 3 1 18 12 9 20 20 18 16 19 15 18 21 16 16 22 20 21 16 9 10 3 6 12 6 6 3 0 3 1 1 5 7 4 2 5 3 3 2 8 10 11 16 19 20 16 11 5 6 16 15 11 12 17
20 21 21 20 20 21 24 26 27 22 10 7 3 5 2 2 1 3 7 6 10 18 14 12 12 12 10 6 10 10 19 13 11 9 4 3 4 10 13 14 15 8 16 18 18 14 10 15 12 15 12 8 5 3 14 17 15 5 7 2 6 5 7 6 5 7 6 1 7 7 5 4 2 10 22 23 16 13 9 9 9 18 18 12 11 22 2
19 20 21 20 19 20 22 24 25 24 8 7 5 4 2 2 4 5 5 10 8 12 13 14 20 10 9 5 4 5 8 9 11 18 2 2 3 10 21 20 16 11 15 11 4 7 8 10 8 6 9 11 7 8 13 13 16 16 14 5 5 9 10 7 7 7 5 2 7 4 6 7 15 12 9 15 20 19 12 12 17 17 10 14 15 11 4
18 19 19 19 19 19 21 21 21 22 12 5 7 6 2 0 2 5 7 14 11 14 15 17 14 4 8 6 6 7 12 14 5 5 11 3 3 7 18 16 17 11 2 11 18 17 15 13 14 13 13 10 6 10 15 12 1 3 5 13 7 9 8 7 3 6 4 3 8 7 9 16 9 2 11 20 15 13 19 22 17 15 14 16 14 10 4
17 18 18 19 20 19 19 20 20 19 14 6 10 10 4 1 2 5 6 7 11 15 15 6 2 4 6 7 7 6 8 6 8 10 7 12 5 4 2 7 12 5 11 16 18 17 13 10 8 9 6 7 8 9 9 6 3 5 5 2 12 9 9 4 3 5 4 3 7 7 16 6 4 4 2 3 11 14 14 12 10 8 10 14 16 20 15
17 17 18 18 19 19 19 18 18 17 17 10 12 8 7 6 4 4 4 8 6 1 4 5 3 8 13 10 9 7 10 8 5 10 6 2 10 7 1 1 6 17 14 16 14 15 8 4 7 6 2 4 3 4 1 3 7 2 4 3 1 14 7 7 3 0 7 5 9 10 5 7 7 7 4 8 10 7 12 12 17 15 14 16 20 20 10
16 16 17 17 19 19 18 18 17 17 18 14 9 10 10 8 5 3 1 5 9 2 6 14 8 7 10 7 12 10 9 5 10 4 1 2 6 1 1 0 9 15 17 14 3 5 4 5 5 6 1 6 7 8 2 3 2 4 3 3 3 6 13 6 11 3 6 7 2 1 5 11 17 2 1 5 5 11 11 10 14 9 16 16 15 16 12
15 16 16 17 18 18 19 19 18 17 18 15 10 8 8 9 4 1 2 5 12 10 3 3 2 4 8 4 11 15 11 9 7 4 5 4 2 2 2 1 1 2 3 6 4 7 5 7 6 9 7 8 2 5 2 1 1 3 5 4 6 7 5 6 11 4 5 3 7 8 10 15 2 8 9 11 10 12 7 4 16 7 11 9 14 14 8
15 15 16 17 17 18 19 19 19 19 19 17 9 8 8 10 7 4 3 6 5 3 3 2 2 0 7 6 5 5 5 8 9 10 6 4 3 3 2 2 2 4 1 7 1 5 5 4 6 4 1 3 5 5 3 2 3 1 3 6 5 4 1 4 3 5 7 8 5 10 5 7 5 7 6 9 9 14 10 2 14 1 11 12 13 15 15
15 15 15 16 17 17 18 19 18 17 16 17 10 7 6 9 9 2 4 6 7 3 3 4 0 5 7 4 8 1 5 6 5 6 7 1 4 3 4 2 2 3 0 10 4 7 5 5 11 6 8 3 2 6 9 8 7 8 9 9 5 3 0 3 12 8 5 8 5 3 8 4 4 5 4 10 13 13 10 17 8 7 10 12 14 17 16
14 14 15 15 16 17 18 18 18 18 16 11 4 5 7 9 9 6 5 5 6 5 4 2 1 3 0 1 2 3 2 6 9 10 8 5 3 4 8 1 3 3 5 5 6 6 8 2 1 3 6 1 1 8 4 7 7 1 7 6 2 1 3 2 3 6 10 9 8 9 6 7 10 0 12 12 10 6 15 8 2 8 5 3 8 9 5
13 13 14 15 15 16 16 17 17 17 17 15 8 7 2 7 8 7 3 7 5 7 2 5 4 6 3 3 4 4 4 3 2 10 11 10 1 7 8 5 5 4 1 4 6 2 5 7 8 2 3 7 6 4 2 2 2 10 6 11 12 12 9 9 9 3 5 3 5 1 12 4 11 13 1 4 9 13 7 3 0 3 6 9 5 8 8
13 14 14 14 15 15 16 16 16 17 16 12 6 3 6 8 9 10 6 4 9 12 5 4 2 7 3 7 6 3 1 8 5 11 4 7 8 10 13 11 10 5 8 8 12 8 5 9 6 4 2 7 5 3 9 6 2 6 4 9 6 8 8 4 6 7 10 10 10 11 7 8 14 21 14 13 10 4 8 7 6 2 5 7 8 7 8
13 14 13 14 14 15 15 16 16 16 16 13 8 3 7 6 6 7 7 9 9 8 5 2 1 4 5 3 3 2 3 3 0 1 9 11 5 0 1 7 7 3 2 3 5 2 2 3 2 4 5 2 1 10 7 8 6 3 1 3 3 9 13 11 13 5 7 9 12 10 6 13 12 7 5 16 10 5 10 10 9 8 6 4 6 10 7
13 13 14 14 14 14 15 15 15 16 16 15 8 6 5 5 5 7 5 12 7 6 3 3 1 3 1 3 2 0 1 1 1 3 5 9 5 3 3 8 5 1 1 0 8 8 7 8 7 5 3 3 10 4 1 3 5 4 8 7 2 4 6 3 4 6 5 5 4 1 2 1 6 3 3 5 10 3 2 6 7 5 6 11 8 8 9
12 13 14 14 14 14 14 14 14 15 15 15 8 4 5 4 5 5 5 4 3 6 3 6 4 5 5 6 6 8 7 6 4 3 3 1 10 2 3 1 1 2 1 1 1 7 6 4 4 3 7 5 7 7 11 7 7 7 6 3 3 3 4 4 4 1 8 10 10 7 5 3 8 6 1 1 1 4 4 4 6 6 7 8 4 6 9
11 12 12 12 13 14 13 14 14 14 15 14 8 5 3 5 6 5 3 4 3 4 5 2 7 5 4 5 4 2 3 3 5 3 5 7 4 8 7 2 1 4 5 2 0 6 4 6 1 2 8 4 8 8 3 10 5 4 9 7 4 3 3 7 3 5 12 13 5 5 1 3 4 4 4 3 5 2 2 2 2 2 3 4 5 4 4
10 10 11 11 12 12 13 13 13 13 14 15 11 5 5 4 5 4 4 4 3 4 6 4 3 4 4 5 6 4 7 7 4 8 7 3 5 10 10 2 5 4 5 2 3 6 5 5 3 1 8 5 2 3 6 5 4 5 10 10 6 4 10 6 9 10 5 3 2 1 3 0 1 5 6 5 7 8 3 2 3 4 6 4 3 1 5
11 10 8 9 11 11 12 11 12 12 12 11 7 6 5 3 6 8 5 2 2 4 4 4 2 1 3 7 4 5 6 7 7 8 8 7 8 6 7 6 7 4 6 5 3 4 3 3 3 3 2 2 4 2 2 1 4 6 5 3 4 8 10 2 5 6 10 15 10 11 7 4 9 9 11 8 4 5 5 3 3 3 5 5 6 1 1
10 9 8 7 7 8 10 10 11 10 9 9 6 6 5 6 5 5 4 4 3 3 5 4 4 3 2 4 4 4 6 7 7 7 6 7 7 7 7 6 6 5 3 4 3 4 2 6 3 1 2 0 5 1 1 1 4 2 1 7 8 13 10 9 12 12 16 12 6 13 6 4 8 13 9 5 6 8 8 8 7 6 4 6 7 4 1
9 8 8 6 5 6 8 9 8 8 8 6 5 5 6 5 5 6 6 3 4 6 7 4 3 5 2 1 3 5 5 5 5 6 7 7 8 7 7 5 6 3 5 4 4 4 3 2 2 4 2 2 4 2 4 3 4 11 9 5 5 3 6 14 13 12 3 2 12 11 6 6 4 7 9 9 8 10 10 7 5 7 9 8 6 7 8
9 8 6 5 3 5 7 7 7 7 7 5 5 5 5 3 5 7 7 5 2 2 5 4 5 1 2 4 2 2 4 5 4 6 7 7 7 6 5 7 4 3 3 3 2 4 1 3 1 1 2 3 3 2 4 2 4 7 1 3 5 2 1 3 2 5 4 2 4 4 4 3 1 3 4 5 6 6 7 8 8 6 4 5 6 4 1
8 8 6 4 2 3 5 8 7 8 9 5 4 4 3 2 3 4 7 5 3 4 2 4 4 2 4 0 3 5 3 3 6 6 5 4 4 3 2 5 4 2 4 2 4 2 3 3 2 0 2 2 2 4 4 4 5 2 4 4 5 6 5 4 1 1 6 7 6 4 4 4 1 4 4 2 2 0 1 2 2 3 4 4 1 2 1
7 7 5 3 3 2 5 7 10 8 7 7 4 2 2 1 3 4 6 4 3 6 4 5 3 3 1 1 1 1 1 2 2 2 2 2 4 3 6 4 3 2 3 4 2 3 1 2 3 3 3 0 4 3 3 3 7 6 1 5 4 3 3 5 4 5 5 8 12 9 5 2 0 4 5 5 3 1 2 3 3 4 5 4 3 3 2
7 5 4 3 3 5 6 7 10 8 4 7 12 11 6 5 4 5 6 4 6 2 2 4 4 1 2 3 1 3 0 2 4 2 1 1 1 1 2 2 2 2 3 4 1 3 1 3 2 4 2 1 3 2 3 7 5 3 6 5 2 3 4 3 4 4 6 1 1 7 6 6 4 1 4 6 4 4 5 5 4 4 5 5 4 3 3
6 6 3 3 5 8 7 8 9 10 10 6 4 4 5 7 7 9 5 4 3 1 2 2 2 4 2 2 4 1 3 3 2 1 3 2 1 3 0 2 2 2 2 3 1 4 1 2 3 3 4 0 1 2 4 5 5 5 3 2 4 6 5 5 4 5 2 3 3 3 6 6 7 6 6 7 5 4 4 4 5 6 3 4 3 2 1
6 6 5 6 11 12 10 8 6 6 3 0 0 4 1 12 10 8 7 2 3 2 2 2 1 4 3 3 2 1 0 3 2 1 3 1 2 2 0 3 1 3 2 3 3 1 2 3 3 5 5 3 3 4 7 5 6 5 4 5 4 8 6 7 2 2 3 2 5 7 8 8 10 6 6 4 5 4 6 3 2 6 5 1 1 2 1
4 3 10 16 17 11 6 6 5 4 4 1 1 4 12 9 9 5 5 5 4 1 2 1 2 2 3 4 3 2 2 2 0 2 1 1 2 1 2 2 2 2 1 3 3 1 2 2 4 1 3 5 8 8 3 9 9 7 8 7 8 8 7 9 9 5 4 5 6 5 7 4 7 7 4 4 4 3 4 5 2 2 3 3 3 2 1
11 15 17 12 6 6 5 0 1 2 2 4 6 10 9 5 3 4 6 4 3 1 3 1 3 1 2 5 1 1 2 3 1 2 1 3 3 1 2 2 3 1 4 1 0 3 2 2 3 2 4 9 6 3 8 10 9 10 5 7 8 2 6 7 11 11 9 7 7 5 4 4 5 4 6 5 5 4 5 6 8 7 4 4 4 6 7
14 11 6 4 4 4 2 2 0 3 3 7 8 5 7 6 3 3 4 4 3 3 4 3 1 1 2 4 1 5 3 2 3 3 1 1 3 2 0 2 4 2 1 2 3 4 3 2 2 5 6 5 1 4 5 6 6 5 7 8 6 5 8 10 9 10 8 5 2 2 3 2 1 0 5 5 6 6 7 4 3 2 0 1 2 1 1
9 3 5 4 4 1 2 2 1 5 3 3 6 2 3 1 3 4 1 1 2 2 3 2 2 1 1 1 1 3 3 4 4 1 3 3 4 1 2 2 3 4 2 1 5 3 1 2 2 1 8 4 4 4 3 3 2 2 5 6 6 7 8 8 8 11 9 8 9 10 11 10 8 7 5 4 4 3 2 1 3 3 3 2 2 1 1
4 3 2 2 2 1 2 4 9 3 4 3 3 4 1 2 3 1 0 3 2 2 1 1 2 2 2 3 2 0 0 4 4 3 3 1 1 4 1 2 3 4 3 3 3 4 4 5 3 1 10 8 6 2 6 5 5 4 3 3 4 5 5 10 6 3 6 5 3 7 6 4 6 7 8 7 6 5 5 4 5 4 3 4 1 1 5
2 2 4 3 4 0 1 1 4 6 3 3 2 2 1 3 1 1 2 1 1 2 1 2 3 2 1 1 2 1 2 4 0 2 3 2 3 4 5 1 2 4 3 4 1 5 2 0 2 6 12 4 7 6 5 5 5 4 3 4 4 5 5 5 5 2 1 2 2 2 1 1 1 1 1 2 4 4 3 2 2 4 4 4 4 3 2
4 4 5 5 3 2 3 6 3 1 2 0 3 0 1 2 1 4 1 2 4 1 2 1 0 2 2 4 4 2 1 0 1 2 2 0 1 4 3 1 3 4 3 3 3 3 2 3 4 7 5 4 9 7 8 7 5 6 4 3 3 4 5 6 4 5 4 3 3 4 4 4 4 3 2 1 0 0 1 1 1 0 2 4 3 4 4
16 10 7 5 2 3 1 2 2 2 2 1 3 2 1 2 2 3 2 1 2 3 5 1 1 0 2 2 3 0 2 1 1 1 2 2 1 4 3 1 1 1 3 2 4 3 4 5 7 10 4 8 8 10 9 9 8 3 5 5 3 2 2 3 7 7 5 6 6 5 5 7 6 5 5 7 5 6 5 4 3 3 3 1 2 2 3
5 4 5 2 2 2 3 1 2 5 3 0 3 3 1 1 3 2 1 3 2 1 3 4 3 5 2 0 4 1 2 2 2 3 3 1 3 0 1 1 3 5 4 4 1 5 5 4 7 3 0 1 2 4 5 3 5 6 6 5 5 4 6 7 6 8 7 5 6 5 6 6 5 6 7 7 8 6 3 3 4 5 4 4 4 3 3
4 4 2 2 2 2 3 2 2 6 3 3 4 2 3 6 7 5 7 4 3 4 2 3 4 4 4 3 3 3 1 2 2 4 2 1 2 1 2 3 2 3 4 2 1 1 3 4 6 2 1 3 3 2 1 2 4 8 8 4 7 7 6 9 7 7 6 6 5 5 7 6 6 6 6 6 5 4 5 4 6 6 6 5 4 4 5
4 3 2 4 1 2 2 1 1 1 3 2 3 7 6 7 5 5 3 2 1 1 6 6 5 5 4 1 5 4 1 2 2 2 2 2 3 3 3 0 3 3 0 1 2 5 6 6 6 5 5 5 5 2 3 2 3 1 8 8 3 7 7 8 8 8 6 5 5 7 5 6 5 5 5 4 4 5 5 4 4 5 5 4 5 5 6
3 2 3 2 3 2 2 2 4 5 2 1 2 3 4 3 3 2 1 1 1 2 0 1 1 3 6 2 1 3 1 0 2 4 4 2 2 2 3 4 1 3 4 4 3 3 4 7 6 3 4 4 4 3 4 5 4 8 9 7 7 6 5 7 6 7 3 3 4 6 6 5 4 3 3 4 5 5 5 5 5 5 4 4 4 4 5
2 1 4 3 3 2 2 4 0 0 1 1 1 1 1 1 2 1 1 1 2 2 1 1 1 1 1 3 3 4 2 0 2 4 2 3 2 6 1 1 2 2 2 5 6 6 5 5 6 7 5 3 4 7 5 6 6 7 7 7 7 6 6 7 7 6 6 7 5 5 4 5 5 5 5 4 4 3 4 5 5 4 4 4 3 4 4
2 1 1 2 1 2 0 0 3 1 2 3 1 1 1 0 3 4 4 3 1 1 3 1 2 2 1 1 3 3 3 2 3 4 1 3 3 3 3 4 4 4 5 6 6 5 8 5 3 6 5 5 3 5 5 4 5 6 6 6 5 4 5 5 4 4 3 4 5 5 4 4 4 4 5 5 6 6 5 5 4 4 3 4 4 4 5
3 1 2 3 1 2 0 1 2 1 1 2 1 1 2 0 2 2 3 5 3 3 3 3 1 2 3 2 1 0 1 1 3 1 5 0 3 2 2 1 3 5 4 4 7 6 2 4 7 8 5 6 4 4 5 4 4 5 4 3 3 4 5 4 5 4 4 4 5 5 5 4 5 5 5 5 5 5 6 5 4 6 7 5 4 5 5
2 3 1 1 1 2 3 2 5 3 2 3 1 0 1 1 1 1 3 2 5 1 2 3 3 2 1 1 1 0 4 2 3 1 5 4 1 3 3 4 5 6 4 0 3 7 5 6 4 2 7 5 4 3 3 3 4 5 5 5 4 3 4 5 5 6 4 3 3 5 6 5 2 1 3 2 3 5 5 3 2 4 5 6 5 5 6
2 1 0 0 2 2 1 0 1 0 0 2 3 1 1 1 2 3 3 2 3 4 7 3 3 1 1 2 4 3 0 5 0 2 0 4 2 6 5 6 5 1 2 4 3 5 6 5 6 6 3 3 2 1 3 2 3 4 5 5 4 5 4 4 4 4 3 4 3 3 1 2 3 2 1 1 1 2 4 5 5 5 5 5 6 5 5
Wind_Direction
7 9 7 356 355 350 340 200 161 156 157 144 146 126 131 144 125 136 149 144 138 141 169 175 172 166 200 338 6 147 151 150 154 150 164 160 133 126 162 172 149 187 165 159 161 170 173 174 191 157 157 190 205 177 155 143 160 141 87 82 186 84 101 75 340 22 308 315 307 163 121 58 307 271 126 139 197 179 163 150 180 172 177 199 277 257 257
9 13 11 4 1 355 333 188 163 154 163 136 133 113 109 118 126 133 157 154 152 157 168 162 179 172 162 182 160 303 144 149 157 157 169 158 161 159 152 162 181 163 171 158 175 170 157 213 154 151 175 182 217 167 154 158 167 171 195 174 196 138 259 120 123 47 355 336 345 339 337 177 207 193 195 172 98 77 143 104 57 161 218 176 140 243 228
9 16 14 8 5 354 345 174 160 160 156 142 136 124 126 113 99 118 143 167 167 175 184 174 168 173 173 174 164 156 145 173 165 157 164 131 155 147 173 169 154 165 161 169 170 178 176 145 223 106 153 167 88 188 166 171 176 186 141 133 132 86 173 137 143 160 174 190 199 204 203 193 206 175 117 162 176 136 141 170 186 189 247 172 202 243 219
12 17 14 10 3 356 4 29 138 149 145 134 123 136 128 148 123 128 99 161 185 218 49 104 162 166 172 172 184 147 135 158 175 150 152 114 123 126 113 99 138 141 154 157 164 178 212 160 182 153 170 154 260 197 182 176 179 161 138 141 137 124 154 186 178 179 192 203 197 45 101 99 190 206 182 190 194 190 137 112 124 215 199 187 227 209 119
13 19 18 12 6 359 5 21 72 127 115 134 131 92 112 140 137 151 145 117 217 171 140 163 172 184 182 172 179 160 152 145 140 171 144 197 137 98 142 148 146 164 152 165 170 171 152 74 145 174 160 179 169 7 177 172 173 151 139 154 104 110 149 213 192 205 211 132 161 186 146 181 206 177 190 187 178 176 168 174 217 132 94 239 224 99 131
17 21 21 15 11 2 3 12 21 45 44 346 57 117 64 142 191 163 160 157 170 181 210 192 182 183 187 188 156 161 149 158 155 25 335 146 148 134 180 165 164 165 169 157 164 170 164 155 170 155 144 104 206 112 9 163 173 153 153 173 154 161 194 195 134 206 222 169 149 162 160 187 175 170 172 170 185 162 198 219 215 147 199 230 112 160 201
20 22 23 21 14 8 2 8 15 21 20 8 95 128 318 69 78 146 5 10 182 184 174 171 176 176 183 142 157 160 158 166 161 148 146 149 175 156 160 179 168 170 162 159 162 165 147 192 172 166 173 159 144 115 88 319 40 169 148 192 194 156 213 166 167 176 226 161 172 171 162 171 154 174 178 188 165 200 210 223 211 198 229 238 79 236 227
22 23 26 26 20 13 8 9 13 12 2 20 73 23 124 149 155 165 31 6 130 98 104 122 165 186 183 152 194 165 166 162 139 113 150 160 179 174 162 174 172 168 165 166 169 181 184 170 169 202 142 161 166 163 172 138 19 67 157 158 294 156 227 136 121 121 217 114 114 143 161 143 179 203 188 186 194 207 215 219 216 224 273 271 309 310 278
25 28 28 32 26 20 13 14 13 7 355 71 81 49 32 95 3 63 137 124 116 117 144 159 177 179 200 174 189 161 169 161 153 103 212 168 167 174 171 161 162 166 167 175 182 183 179 164 169 166 154 172 206 145 257 153 146 150 148 140 57 104 176 38 108 151 245 153 138 134 83 149 170 190 202 206 204 212 219 218 190 183 229 236 246 261 252
29 31 31 34 36 27 21 18 17 7 9 99 95 81 319 46 337 85 95 72 145 149 155 166 160 204 200 169 180 175 173 159 139 123 35 55 133 153 134 148 139 170 170 183 185 180 168 177 163 169 162 122 98 97 153 151 151 148 168 132 134 137 128 142 143 161 233 259 133 131 114 96 294 234 210 203 204 210 212 218 201 209 215 219 220 237 169
32 34 34 36 42 38 32 28 24 16 19 89 100 76 32 74 123 102 69 108 145 154 158 172 188 182 137 124 91 64 135 151 160 148 204 109 100 143 140 149 152 164 188 187 152 116 97 89 86 55 88 124 132 130 151 163 163 166 158 134 162 145 145 169 168 177 194 137 139 113 126 204 229 228 185 176 196 203 192 213 215 222 194 222 221 234 130
34 33 36 35 45 47 41 39 34 32 33 54 100 92 59 336 19 75 116 140 158 160 174 186 179 116 147 165 136 145 158 163 173 126 132 97 93 153 146 156 146 174 194 115 111 106 94 73 67 62 54 56 74 138 146 153 110 19 156 150 144 157 149 157 149 137 154 163 113 135 202 226 239 6 182 190 195 173 198 218 215 215 218 239 253 254 199
34 36 35 36 41 50 49 45 39 38 35 44 71 76 16 347 86 121 115 115 156 170 178 178 1 125 125 119 114 132 125 95 101 93 92 119 105 135 155 154 163 142 150 126 119 109 103 104 67 92 63 59 47 59 47 73 55 29 29 96 140 149 139 139 59 117 59 97 156 173 221 227 342 277 355 201 172 197 199 239 246 239 224 225 238 241 228
36 36 37 37 41 45 51 50 45 41 38 41 69 63 43 26 78 82 116 131 148 79 96 57 104 135 138 141 122 112 106 98 105 111 101 52 130 137 57 47 151 143 142 117 100 104 83 62 106 73 7 23 33 111 304 47 35 32 44 360 108 153 121 139 138 198 151 195 181 226 339 337 261 253 209 155 171 146 170 215 243 220 212 208 227 238 231
31 38 39 38 38 44 46 46 45 43 41 41 69 54 41 30 41 98 208 92 142 119 152 175 174 170 138 139 132 132 125 143 110 47 20 38 66 299 169 201 144 143 139 119 69 46 131 122 112 120 98 135 161 189 357 163 300 47 4 329 100 171 157 203 144 231 131 125 191 325 280 255 240 225 253 144 157 164 173 187 258 221 215 211 219 231 225
34 35 38 39 39 40 42 43 41 41 41 38 53 53 41 21 350 62 109 124 131 155 227 355 6 140 126 149 156 150 156 148 134 104 77 24 71 56 358 14 110 9 64 68 103 113 121 121 148 143 173 179 174 89 250 124 343 334 26 57 89 27 66 146 161 154 85 136 166 202 207 238 136 168 178 171 157 144 115 102 252 231 185 197 204 229 223
34 34 37 37 40 39 41 42 42 45 44 44 50 37 35 4 11 358 75 60 68 87 34 352 286 96 106 67 77 108 141 141 148 132 128 129 127 108 86 358 354 60 74 96 47 99 109 86 137 130 76 128 132 187 90 68 124 8 354 42 62 89 26 101 96 148 188 167 171 222 217 241 223 185 192 169 133 114 105 101 252 117 164 193 183 211 219
36 36 37 40 41 41 39 39 41 42 50 50 51 47 14 354 358 331 58 96 110 72 21 7 43 150 161 177 149 167 92 97 63 78 90 134 103 100 155 135 87 340 227 133 153 115 131 131 159 165 170 237 146 119 182 170 173 183 171 159 147 129 63 147 194 176 172 167 239 324 285 260 218 209 164 148 139 124 139 210 224 214 177 184 185 201 211
40 40 40 41 41 42 40 42 41 40 40 40 43 41 19 357 353 4 111 78 90 112 320 303 304 80 141 33 112 157 191 155 144 114 128 110 242 191 130 163 120 155 360 129 116 146 145 191 53 125 133 235 195 192 127 153 196 28 112 100 71 184 107 323 73 161 177 193 192 229 254 235 174 282 155 152 119 188 206 218 214 158 202 201 183 198 180
37 42 42 44 45 44 44 41 39 35 33 39 55 79 340 349 2 8 58 111 76 98 43 16 3 46 2 87 113 105 99 44 128 131 164 153 230 130 91 124 306 82 47 95 155 192 138 176 177 147 143 162 210 140 103 210 88 158 172 184 173 176 155 188 185 177 56 81 209 258 252 237 132 117 84 272 162 217 197 150 342 196 168 161 193 179 200
43 40 41 42 44 46 45 44 39 32 30 35 48 69 36 354 3 14 24 101 121 101 44 339 19 53 42 57 40 28 62 161 176 153 169 121 176 160 167 180 180 170 176 165 170 191 165 176 167 169 193 154 194 83 183 163 233 285 137 175 182 179 163 195 212 179 168 180 194 207 216 107 167 144 175 204 211 189 148 135 163 216 163 175 163 213 191
45 41 44 44 46 46 45 46 41 36 31 34 38 61 61 348 356 5 36 57 66 79 120 217 258 87 82 73 54 29 87 95 106 217 142 133 339 134 265 141 156 135 179 113 64 34 356 140 86 125 149 168 98 194 169 138 183 204 346 110 183 204 198 178 187 192 146 193 213 223 203 167 184 163 174 184 194 173 166 157 165 168 233 195 153 196 204
45 43 40 41 46 47 48 44 45 40 36 31 34 60 69 3 359 343 35 72 67 74 44 25 31 76 58 61 71 67 272 228 352 42 359 138 131 353 113 136 177 211 61 54 173 161 172 142 191 145 100 179 161 160 302 192 179 175 180 230 200 226 194 64 91 224 237 284 229 70 89 166 214 262 229 205 183 208 182 160 150 229 172 169 182 196 190
44 44 38 38 39 46 47 47 45 41 35 33 37 56 44 36 5 357 25 55 75 114 62 16 54 33 14 2 340 349 26 10 21 308 239 223 138 135 342 300 121 69 23 225 181 136 172 112 188 142 181 214 145 163 168 227 219 185 171 199 252 242 160 141 170 232 159 241 218 164 190 188 204 230 278 289 125 189 187 197 192 187 171 190 221 176 183
34 38 45 36 36 40 46 49 45 42 40 31 29 31 58 30 5 8 67 85 21 63 106 54 34 40 326 279 287 336 0 340 307 12 14 53 99 143 161 167 158 148 170 193 164 75 56 114 125 135 179 243 153 211 209 182 254 154 180 213 129 269 189 174 186 154 186 231 189 175 209 217 222 185 153 186 205 187 177 218 247 182 153 153 176 140 123
29 36 39 44 35 33 40 49 50 46 41 43 44 52 56 34 338 20 73 55 71 79 88 86 71 356 320 14 17 310 303 334 12 49 49 31 70 104 124 126 59 33 103 104 73 100 114 75 105 130 162 234 97 166 190 208 159 182 194 201 193 157 128 204 184 196 233 15 5 292 71 51 283 253 265 238 191 175 155 138 123 131 127 109 104 103 168
20 28 34 37 41 32 33 47 56 48 49 47 46 50 56 27 17 43 56 322 63 38 31 80 110 344 11 50 343 341 337 347 12 51 55 61 81 76 78 81 87 47 62 51 42 102 60 97 111 177 164 183 122 151 135 66 135 148 202 241 118 107 194 157 120 213 222 217 207 139 141 214 237 230 220 215 208 140 134 112 130 149 140 153 143 71 57
14 11 19 35 40 42 33 45 51 54 51 48 56 62 55 54 2 14 36 35 90 156 144 104 93 187 181 56 345 0 354 355 13 50 61 59 61 70 71 67 69 63 31 76 61 36 57 145 180 116 79 278 94 122 105 47 67 26 253 218 195 187 186 153 190 194 220 221 173 184 170 174 210 197 203 181 172 156 158 182 187 193 182 163 143 135 117
11 5 5 19 40 53 51 43 50 56 50 37 35 41 44 51 27 4 15 14 86 87 97 103 68 46 80 213 12 15 2 21 28 44 58 49 57 68 82 70 79 99 70 59 83 92 74 53 40 126 144 212 92 187 103 181 183 218 218 180 172 234 177 186 195 202 250 166 170 174 149 179 212 203 181 182 183 174 188 194 179 178 176 182 181 177 169
6 1 350 356 42 60 52 62 62 42 40 37 36 43 40 338 3 10 347 19 43 98 90 109 102 206 10 26 352 348 17 35 50 52 51 61 64 65 75 92 62 48 87 115 148 106 155 97 57 344 306 339 122 165 138 200 213 239 301 179 184 90 176 208 125 164 216 194 156 156 141 131 19 119 175 168 180 177 176 195 188 183 195 183 181 186 124
354 353 357 338 350 56 71 78 70 37 36 56 67 50 40 37 302 358 341 1 6 91 96 74 104 126 47 323 72 18 357 56 76 78 46 42 61 62 11 77 57 62 86 38 45 154 112 107 128 20 356 360 77 134 180 164 232 307 255 175 185 149 144 128 58 63 133 109 102 97 89 71 114 82 62 130 166 139 65 72 93 129 146 141 127 129 143
347 342 331 325 281 139 98 90 77 57 54 52 72 148 179 222 287 320 337 342 21 52 62 99 51 13 190 50 310 241 37 66 88 47 26 33 35 14 32 52 122 20 105 120 158 74 140 162 103 152 113 310 72 130 126 152 214 240 193 168 218 157 115 109 99 87 97 134 114 77 52 56 331 139 199 151 141 105 114 111 109 105 115 113 105 88 97
321 339 328 288 237 152 116 93 90 82 94 85 71 64 63 84 63 26 347 1 47 48 92 83 115 169 74 240 56 334 174 48 24 29 69 321 109 38 51 357 31 60 331 78 357 136 184 99 142 107 219 17 114 170 186 216 218 176 182 178 118 100 93 73 110 123 132 23 46 141 178 181 194 118 105 112 100 108 117 109 106 97 93 96 93 86 54
314 311 308 239 174 121 106 89 61 64 34 37 18 360 324 17 24 25 31 60 94 53 64 99 86 81 184 345 75 276 78 126 185 61 88 18 264 57 184 51 304 78 314 110 239 68 331 66 111 139 97 126 208 93 245 226 154 171 197 120 122 106 111 107 125 131 42 10 8 72 117 117 109 110 89 90 79 59 74 94 106 88 78 109 126 136 145
306 291 258 182 132 115 79 63 38 46 114 181 244 285 6 57 49 37 41 94 68 347 29 352 113 91 64 12 115 191 108 84 141 288 108 291 31 139 37 71 328 77 275 93 41 154 125 210 178 110 198 143 117 218 232 135 155 159 128 116 125 127 113 106 153 69 26 4 74 94 109 122 107 101 123 114 106 113 108 86 92 116 121 190 215 211 170
272 181 127 115 112 105 78 43 41 39 12 62 249 115 76 52 45 31 44 57 90 111 75 245 79 157 144 136 168 259 104 49 342 31 170 136 17 358 98 137 64 271 27 77 178 85 160 244 100 219 175 140 220 214 188 141 160 168 171 154 169 154 171 168 144 103 62 58 72 86 96 86 115 136 123 123 123 119 122 124 104 99 132 167 233 241 227
115 117 108 79 40 43 50 208 269 105 209 205 131 77 39 45 359 29 8 23 359 65 118 94 94 247 147 191 100 294 111 159 168 67 38 82 163 33 58 52 161 139 47 344 79 123 231 39 101 191 202 204 227 123 145 162 156 174 172 146 174 174 88 93 125 117 89 63 59 48 49 83 83 96 130 138 154 149 145 171 179 169 185 204 185 191 210
103 59 45 33 47 53 8 331 317 254 150 81 28 32 1 32 52 359 13 27 290 40 344 54 117 257 18 73 160 243 113 264 61 141 143 223 85 310 251 108 229 106 141 211 226 182 77 53 196 213 246 240 85 157 170 165 182 165 122 153 164 142 127 131 137 118 108 76 43 40 41 45 108 166 152 171 164 175 205 205 192 221 194 198 207 206 113
90 68 44 30 88 80 157 243 191 94 65 18 46 68 348 19 57 21 309 296 18 11 276 94 247 130 91 45 289 329 150 166 126 250 137 210 105 285 86 117 268 82 277 89 279 122 143 264 290 242 259 241 220 222 185 163 166 164 156 166 143 147 138 152 155 147 161 179 185 185 172 178 190 209 210 196 221 250 274 302 286 253 234 262 268 203 173
56 58 115 46 89 202 330 111 110 89 41 52 331 96 48 338 80 274 302 43 329 275 61 3 232 137 187 162 144 14 283 89 151 154 147 314 349 148 216 92 274 94 219 169 231 98 146 196 204 189 255 231 219 124 151 160 167 219 183 133 119 150 154 159 188 199 173 188 162 178 188 176 167 167 180 200 201 220 249 248 237 234 219 229 231 183 216
59 96 58 111 225 233 286 289 3 56 57 36 19 5 76 4 313 224 44 40 307 252 180 182 25 32 321 73 57 143 309 71 353 83 94 123 240 85 45 146 239 92 261 180 207 80 168 153 227 215 241 215 128 158 153 120 165 210 175 143 159 160 173 178 188 178 129 159 98 113 148 31 39 41 51 182 192 212 229 231 235 241 242 236 221 231 356
192 163 176 136 108 99 27 32 44 50 14 107 101 291 153 202 16 16 112 136 238 247 315 108 6 188 240 170 192 168 320 176 91 74 108 150 302 120 211 6 5 116 216 214 95 65 159 165 229 235 230 112 147 152 142 159 180 195 196 123 153 170 173 184 154 55 52 79 65 71 76 98 85 74 60 84 102 181 261 315 309 232 208 220 217 247 249
96 90 77 76 36 6 96 60 313 104 108 40 47 7 354 47 221 167 256 271 301 87 257 48 229 217 324 38 13 59 160 48 86 341 83 192 9 54 89 22 86 133 227 42 82 190 174 192 222 236 115 147 174 161 173 174 185 118 69 51 51 31 102 89 93 93 52 65 71 68 61 71 67 44 36 50 51 50 29 38 41 14 359 321 258 248 242
47 50 46 344 64 298 76 15 259 58 359 9 106 162 228 75 312 38 17 269 238 322 248 108 245 110 225 310 141 116 41 1 99 73 26 288 74 211 166 191 206 247 43 28 273 201 201 217 224 222 238 251 267 214 183 147 117 104 71 43 30 44 74 91 88 86 61 45 54 50 60 56 52 39 40 44 45 50 7 12 23 360 349 11 15 335 284
81 9 46 29 41 269 64 319 354 112 189 233 153 206 144 170 223 169 195 248 100 222 243 124 113 101 179 257 46 340 74 215 294 103 242 113 63 289 112 236 228 39 91 200 194 275 321 269 275 274 255 152 156 149 89 90 146 141 140 86 44 39 54 80 76 82 69 56 36 33 52 31 44 37 38 41 31 45 51 23 342 355 358 354 342 356 352
82 152 87 87 22 310 111 191 56 42 294 150 197 198 171 226 166 206 252 56 222 305 103 202 169 143 169 287 130 210 73 93 70 220 180 67 112 248 227 14 62 72 293 128 130 196 212 231 237 222 210 166 142 118 58 49 3 66 118 109 76 61 59 71 74 71 61 40 30 57 59 50 44 29 12 357 27 35 37 19 12 8 341 356 357 347 322
58 8 85 116 104 271 78 137 232 201 186 189 215 177 175 202 204 210 278 14 334 286 277 351 130 188 162 227 84 345 34 59 133 257 77 62 177 251 23 87 203 209 182 203 192 227 262 259 243 222 189 153 118 73 72 60 50 82 87 95 92 78 70 78 75 72 45 63 59 58 46 41 32 18 360 21 17 25 18 14 5 6 13 350 319 322 322
106 221 92 88 221 176 137 244 185 313 278 160 219 223 245 268 29 338 358 45 246 320 212 126 75 318 340 299 83 191 207 263 149 286 139 201 30 37 348 136 243 256 192 173 210 216 213 236 198 180 180 121 142 127 97 89 79 83 90 90 83 70 56 63 61 44 34 47 50 53 41 27 16 21 22 1 345 2 17 1 347 348 1 352 348 349 347
123 104 141 191 196 127 169 295 83 161 280 326 330 36 31 102 233 256 312 359 36 271 234 128 202 113 240 258 114 205 242 274 110 239 81 39 114 199 189 203 201 216 259 183 209 204 205 190 145 135 138 126 113 104 98 81 95 88 82 80 78 82 80 76 81 74 68 61 52 53 36 19 20 15 11 11 16 350 350 344 345 352 11 8 0 351 351
62 360 30 64 81 345 287 56 71 300 318 349 29 342 351 35 311 308 334 6 315 320 310 234 246 110 226 100 30 331 250 269 159 281 57 334 204 209 88 355 259 183 222 219 213 227 176 124 144 136 145 133 112 101 107 83 67 78 67 77 74 79 77 90 75 69 65 60 47 41 42 38 28 14 1 350 320 307 327 340 353 0 350 354 3 358 352
16 87 137 299 159 207 127 165 189 215 261 247 209 211 77 244 234 261 1 19 319 312 131 174 199 116 132 49 123 112 269 199 88 146 158 190 213 101 172 179 225 204 230 57 44 17 353 335 337 117 137 129 113 94 69 58 53 45 32 50 47 70 66 60 60 58 50 52 59 55 43 28 345 297 278 298 319 321 331 343 351 355 341 333 346 350 339
59 52 320 323 70 93 56 301 34 101 173 180 161 239 113 241 288 291 323 24 299 174 196 214 96 105 111 175 212 196 14 43 134 206 189 282 171 137 217 203 228 186 336 347 10 10 8 359 16 15 19 57 80 65 51 55 53 37 34 27 29 42 40 42 46 44 46 36 45 59 12 346 343 321 272 76 34 43 26 337 334 341 329 322 318 313 287